COSMOS 2251 DEB, 33894

Orbit data source: Space-Track

COSMOS 2251 DEB, 33894 is space debris in LEO originally from a launch on Wed, 16 Jun 1993 UTC launched from the Plesetsk Missile And Space Complex (PKMTR). The debris from Iridium 33, an American commercial communications satellite, has been tracked extensively since its accidental collision with the defunct Russian satellite Cosmos 2251 in 2009. This event, occurring at high speed in low Earth orbit (LEO), generated thousands of pieces of space debris, significantly increasing the risk of further collisions. The Iridium 33 debris cloud has impacted space traffic management and orbital debris mitigation strategies, making it a subject of ongoing study in space situational awareness.

Loading next visibility...
Identifier
33894, 1993-036CX
Orbit
LEO
Country
Flag of CISCIS
Related business
Manufacturer
Unknown
Mission
Spacecraft
Bus & Motor
Unknown
Mass
Unknown
Launch date (UTC)
1993-06-16 (33 years ago)
Launch vehicle
Unknown
Launch site
Plesetsk Missile And Space Complex (PKMTR)
Object type
Payload
Rocket body
Debris
Shape & HBR
Unknown shape, 0.1 m
Radar Cross Section
Small (<0.1 m²)

Expand to show TLE details & history
Last TLE update: 4 hours ago

TLE from 4 hours ago
0 COSMOS 2251 DEB
1 33894U 93036CX  26063.82658770  .00003039  00000-0  31227-2 0  9990
2 33894  73.7642 222.0586 0572347 129.7468 235.5518 13.21483762817921
Epoch: 2026-03-04T19:50Z
TLE epoch observation values (Epoch: 2026-03-04T19:50:17.177Z)
Latitude
-0.00004°
Longitude
121.9013°
Altitude
1,442.274 km
Speed
7.017 km/s
True Right ascension
14h 48m 14s
True Declination
0° 00' 00"
Sunlit
Object was in daylight at epoch
Visualization orbit readout
Latitude
Unknown
Longitude
Unknown
Altitude
Unknown
Speed
Unknown
Apparent Right ascension
Unknown
Apparent Declination
Unknown
Sunlit
N/A
Visualization observer readout
Local Sidereal Time
03:34:16
Azimuth
Unknown
Elevation
Unknown
Doppler factor
Unknown
Orbital elements
Apogee altitude
1,609.227 km
Perigee altitude
744.416 km
Semi-major axis
7,554.958 km
Eccentricity
0.05723
Inclination
73.7642°
RAAN
222.0586°
Arg. of periapsis
129.7468°
True anomaly
230.36106°
Mean anomaly
235.5518°
Eccentric anomaly
232.93507°
Mean motion
3.30518 °/min
Orbital period
108.92 mins
BSTAR
0.0031227

Documentation

Showing up to 5 results
|